Location: Gilevgi
(36.8751°N, 30.0581°E)
Time: 08:13:26
(UTC+00:00)

Okean 1-7 Rocket - Pass Details

Date: 21 March 2026
Orbit: 609 x 643 km, 82.5° (Epoch: 18 April)

Event Time Altitude Azimuth Distance (km) Brightness Sun altitude
Rises 02:17:41 0° 3° (N) 2,909 7.3 -21.4°
Reaches altitude 10° 02:20:07 10° 13° (NNE) 1,992 6.5 -21.0°
Maximum altitude 02:24:06 32° 78° (ENE) 1,055 5.4 -20.2°
Drops below altitude 10° 02:28:01 10° 142° (SE) 1,964 6.4 -19.5°
Sets 02:30:23 0° 152° (SSE) 2,860 7.1 -19.0°
